#timestamp,LO_Frequency,Hit,StdDev 
1683594015.9,286047000.8,N
1683594035.7,286047000.7,N
1683594055.6,286047002.4,N
1683594075.4,286046998.9,N
1683594095.2,286046998.8,N
1683594115.1,286046998.2,N
1683594116.0,286046998.2,N
1683594135.8,286047000.5,N
1683594155.7,286047001.0,N
1683594175.5,286047002.0,N
1683594195.3,286047003.7,N
1683594215.2,286047001.9,N
1683594235.0,286047000.5,N
1683594235.9,286047000.5,N
1683594255.7,286047004.4,N
1683594275.6,286047001.8,N
1683594295.4,286047001.4,N
1683594315.3,286047001.3,N
1683594335.1,286047003.9,N
1683594336.0,286047003.9,N
1683594355.8,286047004.0,N
1683594375.7,286047002.1,N
1683594395.5,286047001.5,N
1683594415.3,286047002.0,N
1683594435.2,286047000.0,N
1683594455.0,286047002.4,N
1683594455.9,286047002.4,N
1683594475.8,286047000.4,N
1683594495.6,286047000.1,N
1683594515.4,286047001.9,N
1683594535.3,286047001.4,N
1683594555.1,286046999.7,N
1683594575.9,286047000.2,N
1683594595.7,286047001.9,N
1683594615.5,286047001.3,N
1683594635.4,286047003.9,N
1683594655.2,286047002.8,N
1683594675.0,286046999.0,N
1683594676.0,286046999.0,N
1683594695.8,286046997.0,N
1683594715.6,286046996.6,N
1683594735.5,286046998.3,N
1683594755.3,286046998.4,N
1683594775.1,286046998.5,N
1683594795.9,286047000.1,N
1683594815.7,286047002.4,N
1683594835.6,286047001.5,N
1683594855.4,286047004.0,N
1683594875.2,286047004.0,N
1683594895.1,286047001.3,N
1683594896.0,286047001.3,N
1683594915.8,286047003.6,N
1683594935.7,286047004.1,N
1683594955.5,286047006.0,N
1683594975.3,286047003.7,N
1683594995.2,286047001.3,N
1683595015.0,286047003.5,N
1683595015.9,286047003.5,N
1683595035.7,286047001.4,N
1683595055.6,286047000.6,N
1683595075.4,286046998.1,N
1683595095.3,286046998.1,N
1683595115.1,286046996.9,N
1683595135.9,286046998.8,N
1683595155.7,286046999.0,N
1683595175.5,286047001.1,N
1683595195.4,286046999.8,N
1683595215.2,286046998.6,N
1683595235.0,286047000.8,N
1683595235.9,286047000.8,N
1683595255.8,286047001.2,N
1683595275.6,286047000.9,N
1683595295.5,286047001.0,N
1683595315.3,286047000.4,N
1683595335.1,286047001.1,N
1683595355.9,286047001.2,N
1683595375.7,286047001.0,N
1683595395.6,286047000.8,N
1683595415.4,286046999.3,N
1683595435.2,286047001.1,N
1683595455.1,286047002.2,N
1683595456.0,286047002.2,N
1683595475.8,286047002.7,N
1683595495.6,286047002.5,N
1683595515.5,286047002.4,N
1683595535.3,286047000.6,N
1683595555.2,286047002.4,N
1683595575.0,286047001.7,N
1683595575.9,286047001.7,N
1683595595.7,286047001.5,N
1683595615.6,286046998.5,N
1683595635.4,286047000.7,N
1683595655.3,286046998.7,N
1683595675.1,286047002.8,N
1683595676.0,286047002.8,N
1683595695.8,286046999.8,N
1683595715.7,286047002.0,N
1683595735.5,286047000.0,N
1683595755.4,286047000.5,N
1683595775.2,286047002.6,N
1683595795.0,286047002.9,N
1683595795.9,286047002.9,N
1683595815.8,286047004.2,Y
1683595835.6,286047000.1,P
1683595855.5,286046999.9,N
1683595875.3,286047002.8,P
1683595895.1,286046999.7,N
1683595915.9,286047002.6,N
1683595935.7,286047004.2,Y
1683595955.6,286047004.2,P
1683595975.4,286047001.3,N
1683595995.2,286047001.8,N
1683596015.1,286047004.1,Y
1683596016.0,286047004.1,P
1683596035.8,286047000.6,N
1683596055.6,286047000.6,N
1683596075.5,286047002.8,N
1683596095.3,286046999.8,N
1683596115.2,286047000.2,N
1683596135.9,286047001.0,N
1683596155.7,286046998.5,N
1683596175.6,286046998.9,N
1683596195.4,286046998.2,N
1683596215.2,286047000.3,N
1683596235.1,286047001.2,N
1683596236.0,286047001.2,N
1683596255.8,286046996.5,N
1683596275.7,286047000.7,N
1683596295.5,286047001.2,N
1683596315.3,286047000.7,N
1683596335.2,286046998.8,N
1683596355.0,286046995.4,N
1683596355.9,286046995.4,N
1683596375.8,286046996.8,N
1683596395.6,286046997.1,N
1683596415.4,286046996.7,N
1683596435.3,286046997.7,N
1683596455.1,286046995.7,N
1683596475.8,286046998.0,N
1683596495.7,286046996.3,N
1683596515.5,286046996.0,N
1683596535.7,286046995.8,N
1683596555.6,286046995.9,N
1683596575.4,286046995.3,N
1683596595.2,286046996.8,N
1683596615.1,286046998.7,N
1683596616.0,286046998.7,N
1683596635.8,286046998.2,N
1683596655.7,286046998.2,N
1683596675.5,286046999.0,N
1683596695.3,286046996.7,N
1683596715.2,286046999.5,N
1683596735.0,286046997.3,N
1683596735.9,286046997.3,N
1683596755.8,286046996.8,N
1683596775.6,286046997.4,N
1683596795.4,286046999.1,N
1683596815.3,286046999.1,N
1683596835.1,286046995.0,Y
1683596855.8,286047000.1,P
1683596875.7,286046999.8,N
1683596895.5,286047002.8,N
1683596915.4,286046999.4,N
1683596935.2,286047001.1,N
1683596955.0,286047002.5,N
1683596955.9,286047002.5,N
1683596975.8,286047004.0,N
1683596995.6,286047004.0,N
1683597015.4,286047004.3,N
1683597035.3,286047003.4,N
1683597055.1,286047001.5,N
1683597075.9,286047002.4,N
1683597095.7,286047000.0,N
1683597115.5,286046999.8,N
1683597135.4,286047001.0,N
1683597155.2,286046998.7,N
1683597175.0,286046998.4,N
1683597175.9,286046998.4,N
1683597195.8,286047000.4,N
1683597215.6,286047002.5,N
1683597235.5,286047002.6,N
1683597255.3,286047001.5,N
1683597275.1,286047001.7,N
1683597295.9,286047004.4,N
1683597315.7,286047004.8,N
1683597335.5,286047004.8,N
1683597355.4,286047003.6,N
1683597375.2,286047003.8,N
1683597395.1,286047005.4,N
1683597396.0,286047005.4,N
1683597415.8,286047003.2,N
1683597435.6,286047003.8,N
1683597455.5,286047002.9,N
1683597475.3,286047004.0,N
1683597495.1,286047004.3,N
1683597515.9,286047003.2,N
1683597535.7,286047003.1,N
1683597555.6,286047005.3,N
1683597575.4,286047003.6,N
1683597595.2,286047003.2,N
